Time,TemperatureF,DewpointF,PressureIn,WindDirection,WindDirectionDegrees,WindSpeedMPH,WindSpeedGustMPH,Humidity,HourlyPrecipIn,Conditions,Clouds,dailyrainin,SoftwareType,DateUTC
2013-01-28 00:09:00,30.1,22.0,30.52,South,176,0.0,-999.0,72,-99.99,,,0.00,weatherlink.com 1.10,2013-01-28 05:09:00,
2013-01-28 00:24:00,30.4,22.0,30.52,South,176,0.0,-999.0,71,-99.99,,,0.00,weatherlink.com 1.10,2013-01-28 05:24:00,
2013-01-28 00:39:00,30.6,23.0,30.51,South,176,0.0,-999.0,72,-99.99,,,0.00,weatherlink.com 1.10,2013-01-28 05:39:00,
2013-01-28 00:54:00,30.7,23.0,30.50,South,176,0.0,-999.0,72,-99.99,,,0.00,weatherlink.com 1.10,2013-01-28 05:54:00,
2013-01-28 01:09:00,30.7,23.0,30.50,South,176,0.0,-999.0,73,-99.99,,,0.00,weatherlink.com 1.10,2013-01-28 06:09:00,
2013-01-28 01:24:00,30.9,24.0,30.49,South,176,0.0,-999.0,74,-99.99,,,0.00,weatherlink.com 1.10,2013-01-28 06:24:00,
2013-01-28 01:39:00,30.9,24.0,30.49,South,175,0.0,-999.0,75,-99.99,,,0.00,weatherlink.com 1.10,2013-01-28 06:39:00,
2013-01-28 01:54:00,31.0,24.0,30.48,South,176,0.0,-999.0,75,-99.99,,,0.00,weatherlink.com 1.10,2013-01-28 06:54:00,
2013-01-28 02:09:00,31.5,24.0,30.47,South,175,0.0,-999.0,75,-99.99,,,0.00,weatherlink.com 1.10,2013-01-28 07:09:00,
2013-01-28 02:24:00,31.6,24.0,30.47,South,188,0.0,-999.0,74,-99.99,,,0.00,weatherlink.com 1.10,2013-01-28 07:24:00,
2013-01-28 02:39:00,31.8,24.0,30.47,South,184,2.0,-999.0,74,-99.99,,,0.00,weatherlink.com 1.10,2013-01-28 07:39:00,
2013-01-28 02:54:00,31.9,24.0,30.46,South,184,1.0,-999.0,73,-99.99,,,0.00,weatherlink.com 1.10,2013-01-28 07:54:00,
2013-01-28 03:09:00,32.2,24.0,30.45,SSW,195,0.0,-999.0,73,-99.99,,,0.00,weatherlink.com 1.10,2013-01-28 08:09:00,
2013-01-28 03:24:00,32.7,25.0,30.44,SSW,203,3.0,-999.0,73,-99.99,,,0.00,weatherlink.com 1.10,2013-01-28 08:24:00,
2013-01-28 03:39:00,32.8,25.0,30.44,South,188,0.0,-999.0,72,-99.99,,,0.00,weatherlink.com 1.10,2013-01-28 08:39:00,
2013-01-28 03:54:00,32.8,25.0,30.44,South,186,0.0,-999.0,72,-99.99,,,0.00,weatherlink.com 1.10,2013-01-28 08:54:00,
2013-01-28 04:09:00,32.8,25.0,30.44,SSW,209,0.0,-999.0,73,-99.99,,,0.00,weatherlink.com 1.10,2013-01-28 09:09:00,
2013-01-28 04:24:00,32.8,25.0,30.43,South,185,0.0,-999.0,73,-99.99,,,0.00,weatherlink.com 1.10,2013-01-28 09:24:00,
2013-01-28 04:39:00,32.8,25.0,30.43,South,185,1.0,-999.0,73,-99.99,,,0.00,weatherlink.com 1.10,2013-01-28 09:39:00,
2013-01-28 04:54:00,32.8,25.0,30.43,South,189,2.0,-999.0,74,-99.99,,,0.00,weatherlink.com 1.10,2013-01-28 09:54:00,
2013-01-28 05:09:00,32.8,25.0,30.42,SSW,210,1.0,-999.0,74,-99.99,,,0.00,weatherlink.com 1.10,2013-01-28 10:09:00,
2013-01-28 05:24:00,32.8,25.0,30.41,SSE,160,2.0,-999.0,74,-99.99,,,0.00,weatherlink.com 1.10,2013-01-28 10:24:00,
2013-01-28 05:39:00,32.7,26.0,30.41,South,184,2.0,-999.0,76,-99.99,,,0.00,weatherlink.com 1.10,2013-01-28 10:39:00,
2013-01-28 05:54:00,32.5,26.0,30.41,South,184,2.0,-999.0,78,-99.99,,,0.00,weatherlink.com 1.10,2013-01-28 10:54:00,
2013-01-28 06:09:00,32.5,27.0,30.41,SSE,154,1.0,-999.0,79,-99.99,,,0.00,weatherlink.com 1.10,2013-01-28 11:09:00,
2013-01-28 06:24:00,32.7,28.0,30.41,SE,143,0.0,-999.0,81,-99.99,,,0.00,weatherlink.com 1.10,2013-01-28 11:24:00,
2013-01-28 06:39:00,32.5,28.0,30.41,SSW,205,7.0,-999.0,83,-99.99,,,0.00,weatherlink.com 1.10,2013-01-28 11:39:00,
2013-01-28 06:54:00,32.5,29.0,30.42,South,185,2.0,-999.0,85,-99.99,,,0.00,weatherlink.com 1.10,2013-01-28 11:54:00,
2013-01-28 07:09:00,32.4,29.0,30.41,SSW,204,3.0,-999.0,86,-99.99,,,0.00,weatherlink.com 1.10,2013-01-28 12:09:00,
2013-01-28 07:24:00,32.4,29.0,30.41,SSW,203,0.0,-999.0,87,-99.99,,,0.01,weatherlink.com 1.10,2013-01-28 12:24:00,
2013-01-28 07:39:00,32.4,29.0,30.41,SSW,205,4.0,-999.0,88,-99.99,,,0.01,weatherlink.com 1.10,2013-01-28 12:39:00,
2013-01-28 07:54:00,32.5,29.0,30.42,SSW,199,3.0,-999.0,88,-99.99,,,0.01,weatherlink.com 1.10,2013-01-28 12:54:00,
2013-01-28 08:09:00,32.4,30.0,30.40,South,188,0.0,-999.0,89,-99.99,,,0.01,weatherlink.com 1.10,2013-01-28 13:09:00,
2013-01-28 08:24:00,32.5,30.0,30.39,SSW,192,6.0,-999.0,90,-99.99,,,0.01,weatherlink.com 1.10,2013-01-28 13:24:00,
2013-01-28 08:39:00,32.5,30.0,30.39,South,181,3.0,-999.0,90,-99.99,,,0.01,weatherlink.com 1.10,2013-01-28 13:39:00,
2013-01-28 08:54:00,32.7,30.0,30.39,SSW,198,2.0,-999.0,91,-99.99,,,0.02,weatherlink.com 1.10,2013-01-28 13:54:00,
2013-01-28 09:09:00,32.8,31.0,30.39,South,187,1.0,-999.0,91,-99.99,,,0.03,weatherlink.com 1.10,2013-01-28 14:09:00,
2013-01-28 09:24:00,32.8,31.0,30.38,SSW,205,5.0,-999.0,92,-99.99,,,0.03,weatherlink.com 1.10,2013-01-28 14:24:00,
2013-01-28 09:39:00,32.8,31.0,30.37,SSW,207,5.0,-999.0,93,-99.99,,,0.05,weatherlink.com 1.10,2013-01-28 14:39:00,
2013-01-28 09:54:00,32.9,31.0,30.36,SSW,194,4.0,-999.0,93,-99.99,,,0.05,weatherlink.com 1.10,2013-01-28 14:54:00,
2013-01-28 10:09:00,33.1,32.0,30.36,SSE,150,0.0,-999.0,94,-99.99,,,0.07,weatherlink.com 1.10,2013-01-28 15:09:00,
2013-01-28 10:24:00,33.2,32.0,30.35,South,172,1.0,-999.0,94,-99.99,,,0.07,weatherlink.com 1.10,2013-01-28 15:24:00,
2013-01-28 10:39:00,33.4,32.0,30.35,SSW,205,4.0,-999.0,95,-99.99,,,0.09,weatherlink.com 1.10,2013-01-28 15:39:00,
2013-01-28 10:54:00,33.5,32.0,30.34,South,191,9.0,-999.0,95,-99.99,,,0.09,weatherlink.com 1.10,2013-01-28 15:54:00,
2013-01-28 11:09:00,33.7,33.0,30.32,South,176,3.0,-999.0,95,-99.99,,,0.11,weatherlink.com 1.10,2013-01-28 16:09:00,
2013-01-28 11:24:00,34.0,33.0,30.31,SSW,198,4.0,-999.0,95,-99.99,,,0.11,weatherlink.com 1.10,2013-01-28 16:24:00,
2013-01-28 11:39:00,34.1,33.0,30.30,SSW,195,0.0,-999.0,95,-99.99,,,0.11,weatherlink.com 1.10,2013-01-28 16:39:00,
2013-01-28 11:54:00,34.6,33.0,30.29,South,174,5.0,-999.0,95,-99.99,,,0.11,weatherlink.com 1.10,2013-01-28 16:54:00,
2013-01-28 12:09:00,34.7,34.0,30.27,WSW,246,0.0,-999.0,95,-99.99,,,0.11,weatherlink.com 1.10,2013-01-28 17:09:00,
2013-01-28 12:24:00,34.9,34.0,30.26,South,180,0.0,-999.0,95,-99.99,,,0.11,weatherlink.com 1.10,2013-01-28 17:24:00,
2013-01-28 12:39:00,35.5,35.0,30.23,South,182,0.0,-999.0,96,-99.99,,,0.12,weatherlink.com 1.10,2013-01-28 17:39:00,
2013-01-28 12:54:00,35.8,35.0,30.21,South,186,11.0,-999.0,96,-99.99,,,0.12,weatherlink.com 1.10,2013-01-28 17:54:00,
2013-01-28 13:09:00,36.0,35.0,30.22,SW,230,4.0,-999.0,95,-99.99,,,0.13,weatherlink.com 1.10,2013-01-28 18:09:00,
2013-01-28 13:24:00,36.3,35.0,30.20,SW,229,0.0,-999.0,95,-99.99,,,0.13,weatherlink.com 1.10,2013-01-28 18:24:00,
2013-01-28 13:39:00,36.8,36.0,30.18,SW,224,4.0,-999.0,95,-99.99,,,0.13,weatherlink.com 1.10,2013-01-28 18:39:00,
2013-01-28 13:54:00,37.8,37.0,30.18,SSW,211,4.0,-999.0,95,-99.99,,,0.13,weatherlink.com 1.10,2013-01-28 18:54:00,
2013-01-28 14:09:00,37.9,36.0,30.17,South,191,5.0,-999.0,94,-99.99,,,0.13,weatherlink.com 1.10,2013-01-28 19:09:00,
2013-01-28 14:24:00,38.6,37.0,30.15,SW,217,4.0,-999.0,93,-99.99,,,0.13,weatherlink.com 1.10,2013-01-28 19:24:00,
2013-01-28 14:39:00,39.1,37.0,30.14,SSW,203,0.0,-999.0,93,-99.99,,,0.14,weatherlink.com 1.10,2013-01-28 19:39:00,
2013-01-28 14:54:00,39.3,37.0,30.15,WSW,248,0.0,-999.0,92,-99.99,,,0.14,weatherlink.com 1.10,2013-01-28 19:54:00,
2013-01-28 15:09:00,39.9,38.0,30.14,West,264,1.0,-999.0,91,-99.99,,,0.14,weatherlink.com 1.10,2013-01-28 20:09:00,
2013-01-28 15:25:00,39.9,37.0,30.13,South,191,0.0,-999.0,90,-99.99,,,0.14,weatherlink.com 1.10,2013-01-28 20:25:00,
2013-01-28 15:39:00,39.8,37.0,30.13,South,191,1.0,-999.0,90,-99.99,,,0.14,weatherlink.com 1.10,2013-01-28 20:39:00,
2013-01-28 15:54:00,40.1,38.0,30.12,South,191,0.0,-999.0,90,-99.99,,,0.14,weatherlink.com 1.10,2013-01-28 20:54:00,
2013-01-28 16:09:00,40.5,38.0,30.12,SSW,196,0.0,-999.0,90,-99.99,,,0.14,weatherlink.com 1.10,2013-01-28 21:09:00,
2013-01-28 16:24:00,40.8,38.0,30.12,WSW,251,0.0,-999.0,90,-99.99,,,0.14,weatherlink.com 1.10,2013-01-28 21:24:00,
2013-01-28 16:39:00,40.8,38.0,30.12,WSW,251,0.0,-999.0,90,-99.99,,,0.14,weatherlink.com 1.10,2013-01-28 21:39:00,
2013-01-28 16:54:00,40.8,38.0,30.12,WSW,251,0.0,-999.0,90,-99.99,,,0.14,weatherlink.com 1.10,2013-01-28 21:54:00,
2013-01-28 17:10:00,40.6,38.0,30.12,WSW,251,0.0,-999.0,90,-99.99,,,0.14,weatherlink.com 1.10,2013-01-28 22:10:00,
2013-01-28 17:24:00,40.6,38.0,30.11,WSW,251,0.0,-999.0,90,-99.99,,,0.14,weatherlink.com 1.10,2013-01-28 22:24:00,
2013-01-28 17:39:00,40.5,38.0,30.10,WSW,251,0.0,-999.0,91,-99.99,,,0.14,weatherlink.com 1.10,2013-01-28 22:39:00,
2013-01-28 17:54:00,39.8,37.0,30.11,WSW,251,0.0,-999.0,91,-99.99,,,0.14,weatherlink.com 1.10,2013-01-28 22:54:00,
2013-01-28 18:09:00,39.6,38.0,30.10,WSW,251,0.0,-999.0,93,-99.99,,,0.14,weatherlink.com 1.10,2013-01-28 23:09:00,
2013-01-28 18:25:00,39.3,38.0,30.11,WSW,251,0.0,-999.0,93,-99.99,,,0.14,weatherlink.com 1.10,2013-01-28 23:25:00,
2013-01-28 18:39:00,39.2,38.0,30.11,WSW,251,0.0,-999.0,94,-99.99,,,0.14,weatherlink.com 1.10,2013-01-28 23:39:00,
2013-01-28 18:55:00,39.1,38.0,30.10,WSW,251,0.0,-999.0,95,-99.99,,,0.14,weatherlink.com 1.10,2013-01-28 23:55:00,
2013-01-28 19:09:00,38.8,38.0,30.10,WSW,251,0.0,-999.0,95,-99.99,,,0.14,weatherlink.com 1.10,2013-01-29 00:09:00,
2013-01-28 19:24:00,38.5,37.0,30.10,WSW,251,0.0,-999.0,95,-99.99,,,0.14,weatherlink.com 1.10,2013-01-29 00:24:00,
2013-01-28 19:40:00,38.2,37.0,30.09,WSW,251,0.0,-999.0,95,-99.99,,,0.14,weatherlink.com 1.10,2013-01-29 00:40:00,
2013-01-28 19:54:00,37.9,37.0,30.09,WSW,251,0.0,-999.0,96,-99.99,,,0.14,weatherlink.com 1.10,2013-01-29 00:54:00,
2013-01-28 20:09:00,37.9,37.0,30.09,WSW,251,0.0,-999.0,97,-99.99,,,0.14,weatherlink.com 1.10,2013-01-29 01:09:00,
2013-01-28 20:24:00,37.2,36.0,30.07,WSW,251,0.0,-999.0,96,-99.99,,,0.14,weatherlink.com 1.10,2013-01-29 01:24:00,
2013-01-28 20:39:00,36.9,36.0,30.08,WSW,251,0.0,-999.0,97,-99.99,,,0.14,weatherlink.com 1.10,2013-01-29 01:39:00,
2013-01-28 20:55:00,36.8,36.0,30.07,WSW,251,0.0,-999.0,97,-99.99,,,0.14,weatherlink.com 1.10,2013-01-29 01:55:00,
2013-01-28 21:10:00,36.5,36.0,30.06,WSW,251,0.0,-999.0,97,-99.99,,,0.14,weatherlink.com 1.10,2013-01-29 02:10:00,
2013-01-28 21:25:00,36.8,36.0,30.07,WSW,251,0.0,-999.0,98,-99.99,,,0.14,weatherlink.com 1.10,2013-01-29 02:25:00,
2013-01-28 21:39:00,38.9,39.0,30.06,SW,233,3.0,-999.0,99,-99.99,,,0.14,weatherlink.com 1.10,2013-01-29 02:39:00,
2013-01-28 21:54:00,40.3,40.0,30.05,SW,229,4.0,-999.0,99,-99.99,,,0.14,weatherlink.com 1.10,2013-01-29 02:54:00,
2013-01-28 22:09:00,42.2,42.0,30.05,WSW,253,6.0,-999.0,99,-99.99,,,0.14,weatherlink.com 1.10,2013-01-29 03:09:00,
2013-01-28 22:24:00,43.6,43.0,30.05,WSW,240,7.0,-999.0,98,-99.99,,,0.14,weatherlink.com 1.10,2013-01-29 03:24:00,
2013-01-28 22:39:00,45.1,44.0,30.04,West,277,6.0,-999.0,96,-99.99,,,0.14,weatherlink.com 1.10,2013-01-29 03:39:00,
2013-01-28 22:55:00,46.4,45.0,30.04,WNW,286,2.0,-999.0,93,-99.99,,,0.14,weatherlink.com 1.10,2013-01-29 03:55:00,
2013-01-28 23:10:00,46.8,44.0,30.05,WSW,250,1.0,-999.0,89,-99.99,,,0.14,weatherlink.com 1.10,2013-01-29 04:10:00,
2013-01-28 23:24:00,46.5,43.0,30.05,WSW,253,0.0,-999.0,86,-99.99,,,0.14,weatherlink.com 1.10,2013-01-29 04:24:00,
2013-01-28 23:39:00,46.8,43.0,30.05,West,276,3.0,-999.0,86,-99.99,,,0.14,weatherlink.com 1.10,2013-01-29 04:39:00,
2013-01-28 23:54:00,47.3,43.0,30.05,West,266,2.0,-999.0,85,-99.99,,,0.14,weatherlink.com 1.10,2013-01-29 04:54:00,